WLF355 KMEM-KIAH

Flight info

Callsign WLF355
Flight time 1h 17m
Altitude 38000
Route CHLDR5 ANSWA LITTR Q33 SWEUP DOOBI3
Aircraft B738/M-SDE2E3FGHIRWXY/LB1

Departure

Time 2026-05-04 16:53
Airport Memphis International Airport (KMEM)

Arrival

Time 2026-05-04 18:10
Airport George Bush Intercontinental Airport (KIAH)
Time Latitude Longitude Altitude Speed Heading
2026-05-04 16:13 35.04144 -89.97979 311 ft 0 kts 203°
2026-05-04 16:37 35.04156 -89.97973 311 ft 4 kts 197°
2026-05-04 16:37 35.04206 -89.97978 311 ft 4 kts 140°
2026-05-04 16:38 35.04212 -89.97984 312 ft 1 kts 134°
2026-05-04 16:43 35.04194 -89.97928 313 ft 0 kts 88°
2026-05-04 16:47 35.04196 -89.97874 314 ft 6 kts 87°
2026-05-04 16:48 35.04324 -89.97744 315 ft 17 kts 360°
2026-05-04 16:48 35.04459 -89.97747 316 ft 21 kts 359°
2026-05-04 16:49 35.04817 -89.97754 312 ft 29 kts 359°
2026-05-04 16:49 35.05140 -89.97761 315 ft 25 kts 359°
2026-05-04 16:50 35.05394 -89.97782 322 ft 16 kts
2026-05-04 16:50 35.05442 -89.97741 324 ft 0 kts 70°
2026-05-04 16:51 35.05443 -89.97665 326 ft 12 kts 100°
2026-05-04 16:52 35.05277 -89.97614 321 ft 50 kts 180°
2026-05-04 16:52 35.04637 -89.97600 313 ft 131 kts 179°
2026-05-04 16:53 35.02094 -89.97429 978 ft 218 kts 176°
2026-05-04 16:53 34.97477 -89.98234 3130 ft 240 kts 218°
2026-05-04 16:54 34.96107 -89.99428 3984 ft 243 kts 215°
2026-05-04 16:55 34.94106 -90.06941 4979 ft 256 kts 268°
2026-05-04 16:55 34.94139 -90.11288 5705 ft 260 kts 265°
2026-05-04 16:56 34.93853 -90.15701 7330 ft 264 kts 262°
2026-05-04 16:56 34.93374 -90.22483 9733 ft 271 kts 263°
2026-05-04 16:57 34.93232 -90.24797 10346 ft 280 kts 264°
2026-05-04 16:57 34.92942 -90.29913 10804 ft 321 kts 264°
2026-05-04 16:58 34.92474 -90.38245 12843 ft 333 kts 264°
2026-05-04 16:58 34.92313 -90.41063 13607 ft 335 kts 264°
2026-05-04 16:59 34.91985 -90.46765 14842 ft 342 kts 264°
2026-05-04 17:00 34.91300 -90.58498 17428 ft 352 kts 265°
2026-05-04 17:00 34.90767 -90.67503 19216 ft 358 kts 265°
2026-05-04 17:01 34.90392 -90.73564 20352 ft 360 kts 263°
2026-05-04 17:01 34.89496 -90.79602 21427 ft 364 kts 259°
2026-05-04 17:02 34.88506 -90.85686 22472 ft 368 kts 260°
2026-05-04 17:02 34.87556 -90.91844 23498 ft 372 kts 261°
2026-05-04 17:03 34.87080 -90.94946 23929 ft 373 kts 261°
2026-05-04 17:03 34.86603 -90.98060 24322 ft 376 kts 261°
2026-05-04 17:03 34.85635 -91.04356 25094 ft 380 kts 261°
2026-05-04 17:04 34.84653 -91.10713 25855 ft 384 kts 261°
2026-05-04 17:04 34.83663 -91.17093 26603 ft 387 kts 262°
2026-05-04 17:05 34.82657 -91.23556 27344 ft 390 kts 262°
2026-05-04 17:05 34.81637 -91.30083 28011 ft 395 kts 262°
2026-05-04 17:06 34.80604 -91.36673 28675 ft 398 kts 262°
2026-05-04 17:06 34.80082 -91.39987 28996 ft 400 kts 262°
2026-05-04 17:07 34.79208 -91.45530 29509 ft 403 kts 262°
2026-05-04 17:07 34.78850 -91.47802 29707 ft 404 kts 262°
2026-05-04 17:07 34.78142 -91.52269 30082 ft 407 kts 262°
2026-05-04 17:07 34.77606 -91.55647 30383 ft 406 kts 263°
2026-05-04 17:08 34.77070 -91.59019 30719 ft 405 kts 263°
2026-05-04 17:08 34.75997 -91.65749 31315 ft 404 kts 264°
2026-05-04 17:08 34.75462 -91.69096 31707 ft 401 kts 264°
2026-05-04 17:09 34.74932 -91.72407 32132 ft 398 kts 264°
2026-05-04 17:09 34.74403 -91.75697 32526 ft 395 kts 265°
2026-05-04 17:09 34.73881 -91.78968 32872 ft 393 kts 265°
2026-05-04 17:10 34.72875 -91.85455 33563 ft 388 kts 266°
2026-05-04 17:10 34.71400 -91.94969 34867 ft 369 kts 268°
2026-05-04 17:11 34.70924 -91.98016 35222 ft 366 kts 268°
2026-05-04 17:11 34.70454 -92.01066 35287 ft 369 kts 268°
2026-05-04 17:11 34.69501 -92.07191 35586 ft 371 kts 268°
2026-05-04 17:12 34.68972 -92.10248 35866 ft 374 kts 262°
2026-05-04 17:12 34.66029 -92.15801 36215 ft 416 kts 235°
2026-05-04 17:13 34.57544 -92.20217 36679 ft 477 kts 201°
2026-05-04 17:14 34.47626 -92.21897 37178 ft 479 kts 200°
2026-05-04 17:14 34.44337 -92.22473 37328 ft 477 kts 201°
2026-05-04 17:14 34.37783 -92.23695 37643 ft 476 kts 202°
2026-05-04 17:15 34.34515 -92.24320 37812 ft 475 kts 202°
2026-05-04 17:15 34.27985 -92.25568 38013 ft 476 kts 202°
2026-05-04 17:16 34.21427 -92.26812 38024 ft 477 kts 202°
2026-05-04 17:17 34.08399 -92.29242 37985 ft 473 kts 203°
2026-05-04 17:18 33.95373 -92.31662 38022 ft 474 kts 202°
2026-05-04 17:19 33.82288 -92.34086 38030 ft 477 kts 202°
2026-05-04 17:20 33.69079 -92.36526 38037 ft 482 kts 202°
2026-05-04 17:20 33.59098 -92.38361 38027 ft 485 kts 202°
2026-05-04 17:21 33.45737 -92.40814 38028 ft 489 kts 202°
2026-05-04 17:22 33.39012 -92.42045 38038 ft 490 kts 202°
2026-05-04 17:23 33.25531 -92.44518 38041 ft 489 kts 202°
2026-05-04 17:24 33.15457 -92.46361 38040 ft 487 kts 202°
2026-05-04 17:25 33.02124 -92.48796 38042 ft 482 kts 202°
2026-05-04 17:26 32.88921 -92.51203 38057 ft 480 kts 202°
2026-05-04 17:27 32.72412 -92.54202 38064 ft 481 kts 202°
2026-05-04 17:28 32.59142 -92.56604 38018 ft 483 kts 202°
2026-05-04 17:29 32.39129 -92.60212 38071 ft 487 kts 202°
2026-05-04 17:31 32.22385 -92.63216 38059 ft 489 kts 202°
2026-05-04 17:32 32.05570 -92.66224 38062 ft 488 kts 202°
2026-05-04 17:33 31.96134 -92.69202 38089 ft 433 kts 229°
2026-05-04 17:33 31.93867 -92.71368 38070 ft 411 kts 239°
2026-05-04 17:34 31.85714 -92.80751 38071 ft 411 kts 239°
2026-05-04 17:35 31.75410 -92.92417 38049 ft 413 kts 238°
2026-05-04 17:36 31.71244 -92.97100 38069 ft 414 kts 238°
2026-05-04 17:36 31.67077 -93.01780 38097 ft 415 kts 238°
2026-05-04 17:37 31.62895 -93.06472 38037 ft 416 kts 238°
2026-05-04 17:37 31.58707 -93.11163 38054 ft 417 kts 238°
2026-05-04 17:38 31.54535 -93.15834 37827 ft 422 kts 238°
2026-05-04 17:38 31.52407 -93.18220 37396 ft 424 kts 237°
2026-05-04 17:38 31.50272 -93.20603 36880 ft 421 kts 237°
2026-05-04 17:38 31.48167 -93.22939 36506 ft 415 kts 237°
2026-05-04 17:39 31.44025 -93.27541 35746 ft 406 kts 237°
2026-05-04 17:39 31.41986 -93.29809 35360 ft 402 kts 237°
2026-05-04 17:39 31.39970 -93.32054 34979 ft 398 kts 237°
2026-05-04 17:40 31.37969 -93.34282 34600 ft 395 kts 237°
2026-05-04 17:40 31.35985 -93.36490 34224 ft 392 kts 237°
2026-05-04 17:40 31.34037 -93.38657 33834 ft 389 kts 237°
2026-05-04 17:40 31.32058 -93.40856 33412 ft 386 kts 237°
2026-05-04 17:41 31.30141 -93.42985 33030 ft 383 kts 237°
2026-05-04 17:41 31.28218 -93.45118 32657 ft 379 kts 237°
2026-05-04 17:41 31.26310 -93.47233 32285 ft 376 kts 238°
2026-05-04 17:41 31.24416 -93.49332 31924 ft 373 kts 238°
2026-05-04 17:42 31.22540 -93.51411 31577 ft 370 kts 238°
2026-05-04 17:42 31.20678 -93.53472 31218 ft 367 kts 238°
2026-05-04 17:42 31.18828 -93.55520 30841 ft 365 kts 238°
2026-05-04 17:42 31.16994 -93.57548 30504 ft 362 kts 238°
2026-05-04 17:43 31.15173 -93.59561 30175 ft 359 kts 238°
2026-05-04 17:43 31.13362 -93.61562 29782 ft 357 kts 238°
2026-05-04 17:43 31.11560 -93.63552 29392 ft 354 kts 237°
2026-05-04 17:43 31.09781 -93.65513 29045 ft 350 kts 237°
2026-05-04 17:44 31.08017 -93.67457 28678 ft 347 kts 237°
2026-05-04 17:44 31.06273 -93.69379 28353 ft 343 kts 237°
2026-05-04 17:44 31.04550 -93.71278 27989 ft 340 kts 237°
2026-05-04 17:44 31.02835 -93.73167 27648 ft 337 kts 236°
2026-05-04 17:45 31.01158 -93.75014 27321 ft 335 kts 236°
2026-05-04 17:45 30.99472 -93.76869 26980 ft 332 kts 236°
2026-05-04 17:45 30.97797 -93.78714 26650 ft 331 kts 236°
2026-05-04 17:45 30.96126 -93.80552 26318 ft 330 kts 235°
2026-05-04 17:46 30.94445 -93.82405 25992 ft 337 kts 235°
2026-05-04 17:46 30.92720 -93.84309 25663 ft 346 kts 234°
2026-05-04 17:46 30.90960 -93.86240 25306 ft 347 kts 233°
2026-05-04 17:46 30.89205 -93.88158 24921 ft 345 kts 233°
2026-05-04 17:47 30.87462 -93.90063 24584 ft 342 kts 233°
2026-05-04 17:47 30.85732 -93.91955 24251 ft 340 kts 233°
2026-05-04 17:47 30.84012 -93.93840 23928 ft 338 kts 232°
2026-05-04 17:47 30.82305 -93.95713 23587 ft 336 kts 232°
2026-05-04 17:48 30.80605 -93.97577 23197 ft 335 kts 232°
2026-05-04 17:48 30.78918 -93.99428 22828 ft 332 kts 232°
2026-05-04 17:48 30.77239 -94.01267 22475 ft 330 kts 232°
2026-05-04 17:48 30.75573 -94.03092 22139 ft 327 kts 231°
2026-05-04 17:49 30.73920 -94.04902 21798 ft 325 kts 231°
2026-05-04 17:49 30.72297 -94.06678 21471 ft 323 kts 231°
2026-05-04 17:49 30.70665 -94.08465 21140 ft 321 kts 231°
2026-05-04 17:49 30.69042 -94.10240 20813 ft 319 kts 231°
2026-05-04 17:50 30.67436 -94.11996 20496 ft 317 kts 231°
2026-05-04 17:50 30.65836 -94.13744 20168 ft 315 kts 231°
2026-05-04 17:50 30.64246 -94.15479 19848 ft 313 kts 230°
2026-05-04 17:50 30.62657 -94.17198 19530 ft 312 kts 229°
2026-05-04 17:51 30.61045 -94.18880 19213 ft 311 kts 229°
2026-05-04 17:51 30.59430 -94.20545 18885 ft 310 kts 229°
2026-05-04 17:51 30.57818 -94.22203 18571 ft 309 kts 228°
2026-05-04 17:51 30.56206 -94.23862 18239 ft 308 kts 228°
2026-05-04 17:52 30.54605 -94.25513 17889 ft 308 kts 228°
2026-05-04 17:52 30.53009 -94.27160 17541 ft 306 kts 228°
2026-05-04 17:52 30.51421 -94.28797 17215 ft 304 kts 228°
2026-05-04 17:52 30.49866 -94.30403 16900 ft 303 kts 228°
2026-05-04 17:53 30.48297 -94.32023 16582 ft 301 kts 228°
2026-05-04 17:53 30.46737 -94.33633 16256 ft 299 kts 228°
2026-05-04 17:53 30.45181 -94.35238 15959 ft 298 kts 228°
2026-05-04 17:53 30.43635 -94.36833 15648 ft 297 kts 228°
2026-05-04 17:54 30.42091 -94.38424 15336 ft 296 kts 228°
2026-05-04 17:54 30.40558 -94.40002 15123 ft 292 kts 228°
2026-05-04 17:54 30.39027 -94.41542 14850 ft 293 kts 226°
2026-05-04 17:54 30.37454 -94.43050 14585 ft 296 kts 226°
2026-05-04 17:55 30.35848 -94.44571 14324 ft 300 kts 226°
2026-05-04 17:55 30.34218 -94.46114 14018 ft 304 kts 226°
2026-05-04 17:55 30.32580 -94.47667 13769 ft 304 kts 226°
2026-05-04 17:55 30.30970 -94.49192 13481 ft 300 kts 225°
2026-05-04 17:56 30.29359 -94.50723 13143 ft 299 kts 225°
2026-05-04 17:56 30.27751 -94.52253 12801 ft 298 kts 225°
2026-05-04 17:56 30.26151 -94.53776 12466 ft 297 kts 225°
2026-05-04 17:56 30.25092 -94.54783 12249 ft 297 kts 225°
2026-05-04 17:57 30.23499 -94.56297 11942 ft 295 kts 225°
2026-05-04 17:57 30.21916 -94.57802 11642 ft 294 kts 224°
2026-05-04 17:57 30.20337 -94.59296 11342 ft 292 kts 223°
2026-05-04 17:57 30.18736 -94.60738 11088 ft 290 kts 222°
2026-05-04 17:58 30.17156 -94.62130 11008 ft 280 kts 222°
2026-05-04 17:58 30.15630 -94.63478 10880 ft 273 kts 222°
2026-05-04 17:58 30.14140 -94.64800 10739 ft 266 kts 222°
2026-05-04 17:58 30.12697 -94.66081 10682 ft 257 kts 222°
2026-05-04 17:59 30.11299 -94.67325 10550 ft 251 kts 222°
2026-05-04 17:59 30.09933 -94.68540 10401 ft 245 kts 222°
2026-05-04 17:59 30.07236 -94.70944 9884 ft 244 kts 221°
2026-05-04 18:00 30.05919 -94.72114 9551 ft 241 kts 221°
2026-05-04 18:00 30.04596 -94.73293 9160 ft 240 kts 222°
2026-05-04 18:00 30.03294 -94.74483 8816 ft 237 kts 222°
2026-05-04 18:00 30.02010 -94.75662 8501 ft 234 kts 222°
2026-05-04 18:01 30.00872 -94.76969 8138 ft 228 kts 243°
2026-05-04 18:01 30.00270 -94.78643 7914 ft 226 kts 252°
2026-05-04 18:01 29.99750 -94.80343 7756 ft 223 kts 252°
2026-05-04 18:02 29.99245 -94.83795 7521 ft 220 kts 272°
2026-05-04 18:02 29.99276 -94.85569 7395 ft 223 kts 270°
2026-05-04 18:02 29.99288 -94.87359 7279 ft 222 kts 270°
2026-05-04 18:02 29.99295 -94.89134 7148 ft 222 kts 270°
2026-05-04 18:03 29.99301 -94.90937 7059 ft 229 kts 270°
2026-05-04 18:03 29.99307 -94.92808 6648 ft 242 kts 269°
2026-05-04 18:03 29.99312 -94.94769 6202 ft 244 kts 269°
2026-05-04 18:03 29.99317 -94.96736 5701 ft 246 kts 268°
2026-05-04 18:04 29.99329 -94.98724 5226 ft 249 kts 268°
2026-05-04 18:04 29.99346 -95.00683 5029 ft 237 kts 267°
2026-05-04 18:04 29.99362 -95.04214 4671 ft 206 kts 266°
2026-05-04 18:05 29.99361 -95.05896 4218 ft 207 kts 265°
2026-05-04 18:05 29.99360 -95.07545 3921 ft 203 kts 265°
2026-05-04 18:05 29.99360 -95.09154 3655 ft 197 kts 265°
2026-05-04 18:05 29.99361 -95.10699 3460 ft 194 kts 265°
2026-05-04 18:06 29.99359 -95.13689 3053 ft 180 kts 264°
2026-05-04 18:06 29.99355 -95.15173 3050 ft 189 kts 265°
2026-05-04 18:06 29.99352 -95.16724 2687 ft 195 kts 265°
2026-05-04 18:07 29.99353 -95.18273 2412 ft 191 kts 265°
2026-05-04 18:07 29.99353 -95.19742 2207 ft 178 kts 265°
2026-05-04 18:07 29.99353 -95.21117 1961 ft 164 kts 265°
2026-05-04 18:07 29.99364 -95.22383 1871 ft 156 kts 266°
2026-05-04 18:08 29.99360 -95.23670 1544 ft 159 kts 262°
2026-05-04 18:08 29.99356 -95.24879 1398 ft 147 kts 263°
2026-05-04 18:08 29.99353 -95.26064 1195 ft 146 kts 262°
2026-05-04 18:08 29.99349 -95.27236 1007 ft 148 kts 265°
2026-05-04 18:09 29.99326 -95.29777 642 ft 170 kts 265°
2026-05-04 18:09 29.99342 -95.32696 151 ft 185 kts 265°
2026-05-04 18:10 29.99340 -95.33972 97 ft 102 kts 256°
2026-05-04 18:10 29.99269 -95.34222 97 ft 0 kts 240°
2026-05-04 18:11 29.99267 -95.34224 97 ft 5 kts 240°
2026-05-04 18:12 29.99203 -95.34296 96 ft 17 kts 223°
2026-05-04 18:12 29.99078 -95.34347 97 ft 22 kts 171°
2026-05-04 18:12 29.98942 -95.34333 98 ft 13 kts 170°
2026-05-04 18:12 29.98924 -95.34320 98 ft 7 kts 130°
2026-05-04 18:13 29.98889 -95.34259 98 ft 10 kts 123°
2026-05-04 18:13 29.98855 -95.34199 97 ft 6 kts 122°
2026-05-04 18:13 29.98855 -95.34198 98 ft 0 kts 122°